• In Österreich
  • Länderverzeichnis
  • Für 7 Tage
  • Wassertemperatur
  • Satellitenkarten
  • Wetterkarte
  • News
  • Widgets
  • user-avatar
    Anmelden

    Stündliche Wetter Canberra

    Heute, 13 Dezember, Mittwoch

    Zeit Temperatur Niederschläge Wind Luftdruck Luftfeuchtigkeit
    00:00 +18°C° 0 mm 1 m/S 709 mmHg 75%
    01:00 +16°C° 0 mm 1 m/S 708 mmHg 79%
    02:00 +16°C° 0 mm 1 m/S 708 mmHg 80%
    03:00 +16°C° 0 mm 1 m/S 708 mmHg 81%
    04:00 +15°C° 0 mm 1 m/S 708 mmHg 85%
    05:00 +18°C° 0 mm 1 m/S 708 mmHg 75%
    06:00 +21°C° 0 mm 1 m/S 709 mmHg 65%
    07:00 +23°C° 0 mm 1 m/S 709 mmHg 55%
    08:00 +26°C° 0 mm 1 m/S 709 mmHg 45%
    09:00 +28°C° 0 mm 2 m/S 709 mmHg 34%
    10:00 +31°C° 0 mm 3 m/S 709 mmHg 23%
    11:00 +33°C° 0 mm 3 m/S 709 mmHg 21%
    12:00 +34°C° 0 mm 4 m/S 708 mmHg 19%
    13:00 +35°C° 0 mm 4 m/S 708 mmHg 16%
    14:00 +35°C° 0 mm 4 m/S 707 mmHg 17%
    15:00 +35°C° 0 mm 4 m/S 707 mmHg 17%
    16:00 +35°C° 0 mm 3 m/S 706 mmHg 18%
    17:00 +31°C° 0 mm 2 m/S 706 mmHg 24%
    18:00 +29°C° 0 mm 1 m/S 706 mmHg 30%
    19:00 +24°C° 0 mm 0 m/S 706 mmHg 36%
    20:00 +25°C° 0 mm 1 m/S 706 mmHg 37%
    21:00 +24°C° 0 mm 1 m/S 706 mmHg 38%
    22:00 +22°C° 0 mm 1 m/S 706 mmHg 40%
    23:00 +22°C° 0 mm 1 m/S 705 mmHg 43%

    Morgen, 14 Dezember, Donnerstag

    Zeit Temperatur Niederschläge Wind Luftdruck Luftfeuchtigkeit
    00:00 +21°C° 0 mm 1 m/S 705 mmHg 46%
    01:00 +21°C° 0 mm 1 m/S 704 mmHg 48%
    02:00 +20°C° 0 mm 1 m/S 704 mmHg 48%
    03:00 +20°C° 0 mm 1 m/S 704 mmHg 48%
    04:00 +20°C° 0 mm 1 m/S 703 mmHg 48%
    05:00 +21°C° 0 mm 2 m/S 704 mmHg 44%
    06:00 +25°C° 0 mm 3 m/S 704 mmHg 40%
    07:00 +27°C° 0 mm 4 m/S 704 mmHg 36%
    08:00 +29°C° 0 mm 5 m/S 705 mmHg 32%
    09:00 +32°C° 0 mm 7 m/S 705 mmHg 28%
    10:00 +35°C° 0 mm 8 m/S 705 mmHg 24%
    11:00 +35°C° 0 mm 8 m/S 705 mmHg 23%
    12:00 +37°C° 0 mm 8 m/S 705 mmHg 21%
    13:00 +38°C° 0 mm 8 m/S 704 mmHg 20%
    14:00 +36°C° 0 mm 6 m/S 704 mmHg 23%
    15:00 +34°C° 0 mm 5 m/S 704 mmHg 26%
    16:00 +31°C° 0 mm 3 m/S 704 mmHg 29%
    17:00 +30°C° 0 mm 2 m/S 704 mmHg 33%
    18:00 +29°C° 0 mm 2 m/S 704 mmHg 36%
    19:00 +27°C° 0 mm 1 m/S 704 mmHg 40%
    20:00 +26°C° 0 mm 1 m/S 705 mmHg 44%
    21:00 +25°C° 0 mm 1 m/S 705 mmHg 47%
    22:00 +24°C° 0 mm 1 m/S 706 mmHg 51%
    23:00 +23°C° 0,4 mm 1 m/S 706 mmHg 61%

    übermorgen, 15 Dezember, Freitag

    Zeit Temperatur Niederschläge Wind Luftdruck Luftfeuchtigkeit
    00:00 +20°C° 0,4 mm 2 m/S 706 mmHg 72%
    01:00 +19°C° 0,4 mm 2 m/S 706 mmHg 82%
    02:00 +18°C° 0,1 mm 2 m/S 706 mmHg 85%
    03:00 +18°C° 0,1 mm 2 m/S 706 mmHg 88%
    04:00 +17°C° 0,1 mm 2 m/S 706 mmHg 91%
    05:00 +18°C° 0 mm 2 m/S 707 mmHg 89%
    06:00 +18°C° 0 mm 2 m/S 707 mmHg 87%
    07:00 +18°C° 0 mm 2 m/S 708 mmHg 85%
    08:00 +20°C° 0 mm 3 m/S 708 mmHg 76%
    09:00 +22°C° 0 mm 3 m/S 708 mmHg 67%
    10:00 +25°C° 0 mm 3 m/S 708 mmHg 57%
    11:00 +28°C° 0 mm 3 m/S 708 mmHg 50%
    12:00 +30°C° 0 mm 4 m/S 708 mmHg 43%
    13:00 +33°C° 0 mm 4 m/S 708 mmHg 35%
    14:00 +32°C° 0 mm 4 m/S 707 mmHg 37%
    15:00 +32°C° 0 mm 4 m/S 707 mmHg 38%
    16:00 +30°C° 0 mm 4 m/S 706 mmHg 39%
    17:00 +29°C° 0,1 mm 3 m/S 706 mmHg 46%
    18:00 +27°C° 0,1 mm 3 m/S 707 mmHg 52%
    19:00 +25°C° 0,1 mm 2 m/S 707 mmHg 58%
    20:00 +24°C° 0 mm 2 m/S 707 mmHg 61%
    21:00 +23°C° 0 mm 2 m/S 707 mmHg 63%
    22:00 +22°C° 0 mm 1 m/S 707 mmHg 65%
    23:00 +22°C° 0 mm 1 m/S 707 mmHg 66%

    16 Dezember, Samstag

    Zeit Temperatur Niederschläge Wind Luftdruck Luftfeuchtigkeit
    00:00 +21°C° 0 mm 1 m/S 707 mmHg 68%
    01:00 +21°C° 0 mm 1 m/S 707 mmHg 69%
    02:00 +20°C° 0,1 mm 1 m/S 707 mmHg 70%
    03:00 +20°C° 0,1 mm 1 m/S 707 mmHg 71%
    04:00 +19°C° 0,1 mm 1 m/S 707 mmHg 72%
    05:00 +21°C° 0 mm 1 m/S 707 mmHg 65%
    06:00 +23°C° 0 mm 1 m/S 708 mmHg 58%
    07:00 +25°C° 0 mm 2 m/S 709 mmHg 51%
    08:00 +27°C° 0 mm 2 m/S 709 mmHg 48%
    09:00 +28°C° 0 mm 2 m/S 709 mmHg 45%
    10:00 +29°C° 0 mm 3 m/S 709 mmHg 42%
    11:00 +31°C° 0 mm 3 m/S 709 mmHg 38%
    12:00 +34°C° 0 mm 3 m/S 709 mmHg 33%
    13:00 +35°C° 0 mm 4 m/S 709 mmHg 29%
    14:00 +35°C° 0 mm 3 m/S 709 mmHg 31%
    15:00 +34°C° 0 mm 3 m/S 708 mmHg 33%
    16:00 +32°C° 0 mm 2 m/S 708 mmHg 35%
    17:00 +30°C° 0,1 mm 2 m/S 708 mmHg 43%
    18:00 +28°C° 0,1 mm 2 m/S 708 mmHg 50%
    19:00 +26°C° 0,1 mm 1 m/S 708 mmHg 58%
    20:00 +25°C° 0,1 mm 1 m/S 708 mmHg 66%
    21:00 +23°C° 0,1 mm 2 m/S 709 mmHg 73%
    22:00 +21°C° 0,1 mm 2 m/S 709 mmHg 80%
    23:00 +20°C° 0,3 mm 2 m/S 709 mmHg 83%

    17 Dezember, Sonntag

    Zeit Temperatur Niederschläge Wind Luftdruck Luftfeuchtigkeit
    00:00 +20°C° 0,3 mm 2 m/S 709 mmHg 86%
    01:00 +19°C° 0,3 mm 3 m/S 709 mmHg 89%
    02:00 +19°C° 0,2 mm 2 m/S 708 mmHg 91%
    03:00 +19°C° 0,2 mm 2 m/S 708 mmHg 92%
    04:00 +18°C° 0,2 mm 2 m/S 708 mmHg 93%
    05:00 +19°C° 0 mm 2 m/S 709 mmHg 89%
    06:00 +20°C° 0 mm 2 m/S 709 mmHg 85%
    07:00 +21°C° 0 mm 2 m/S 710 mmHg 81%
    08:00 +25°C° 0 mm 2 m/S 710 mmHg 70%
    09:00 +28°C° 0 mm 2 m/S 710 mmHg 59%
    10:00 +30°C° 0 mm 2 m/S 710 mmHg 48%
    11:00 +33°C° 0 mm 3 m/S 710 mmHg 42%
    12:00 +34°C° 0 mm 3 m/S 709 mmHg 36%
    13:00 +36°C° 0 mm 4 m/S 709 mmHg 31%
    14:00 +36°C° 0 mm 4 m/S 709 mmHg 31%
    15:00 +36°C° 0 mm 3 m/S 709 mmHg 31%
    16:00 +35°C° 0 mm 3 m/S 708 mmHg 31%
    17:00 +33°C° 0 mm 3 m/S 708 mmHg 42%
    18:00 +29°C° 0 mm 3 m/S 708 mmHg 53%
    19:00 +26°C° 0 mm 3 m/S 708 mmHg 64%
    20:00 +25°C° 0,8 mm 3 m/S 709 mmHg 73%
    21:00 +22°C° 0,8 mm 3 m/S 709 mmHg 82%
    22:00 +21°C° 0,8 mm 3 m/S 709 mmHg 91%
    23:00 +20°C° 0 mm 2 m/S 709 mmHg 92%

    18 Dezember, Montag

    Zeit Temperatur Niederschläge Wind Luftdruck Luftfeuchtigkeit
    00:00 +20°C° 0 mm 2 m/S 709 mmHg 93%
    01:00 +19°C° 0 mm 2 m/S 708 mmHg 94%
    02:00 +20°C° 0 mm 1 m/S 708 mmHg 95%
    03:00 +20°C° 0 mm 1 m/S 708 mmHg 96%
    04:00 +19°C° 0 mm 1 m/S 708 mmHg 96%
    05:00 +21°C° 0 mm 1 m/S 708 mmHg 90%
    06:00 +22°C° 0 mm 1 m/S 708 mmHg 84%
    07:00 +24°C° 0 mm 1 m/S 709 mmHg 78%
    08:00 +27°C° 0 mm 2 m/S 709 mmHg 64%
    09:00 +30°C° 0 mm 3 m/S 709 mmHg 50%
    10:00 +35°C° 0 mm 4 m/S 709 mmHg 36%
    11:00 +36°C° 0 mm 4 m/S 708 mmHg 32%
    12:00 +37°C° 0 mm 5 m/S 708 mmHg 28%
    13:00 +39°C° 0 mm 5 m/S 708 mmHg 24%
    14:00 +37°C° 0 mm 4 m/S 707 mmHg 27%
    15:00 +36°C° 0 mm 4 m/S 707 mmHg 30%
    16:00 +35°C° 0 mm 3 m/S 706 mmHg 33%
    17:00 +32°C° 0,1 mm 2 m/S 706 mmHg 41%
    18:00 +30°C° 0,1 mm 2 m/S 706 mmHg 48%
    19:00 +28°C° 0,1 mm 2 m/S 706 mmHg 56%
    20:00 +27°C° 0,2 mm 2 m/S 706 mmHg 61%
    21:00 +25°C° 0,2 mm 2 m/S 706 mmHg 67%
    22:00 +24°C° 0,2 mm 2 m/S 706 mmHg 72%
    23:00 +24°C° 0 mm 2 m/S 706 mmHg 74%
    Mehr zeigen